Macon, GA

5:02 AM EDT on October 20, 2017 (GMT -0400)
Middle Georgia Regional

Weather History for KMCN - March, 2013

Change the Weather History Date:

Wednesday, March 27, 2013

  Actual Average Record
Temperature  
Mean Temperature 43 °F 59 °F  
Max Temperature 59 °F 72 °F 88 °F (1949)
Min Temperature 27 °F 46 °F 20 °F (1955)
Degree Days  
Heating Degree Days 22 7  
Month to date heating degree days 408 248  
Since 1 July heating degree days 2082 2173  
Cooling Degree Days 0 1  
Month to date cooling degree days 0 16  
Year to date cooling degree days 18 19  
Moisture  
Dew Point 24 °F    
Average Humidity 54    
Maximum Humidity 85    
Minimum Humidity 23    
Precipitation  
Precipitation 0.00 in 0.14 in 3.46 in (2005)
Month to date precipitation 3.79 3.99  
Year to date precipitation 18.71 12.59  
Sea Level Pressure  
Sea Level Pressure 30.29 in    
Wind  
Wind Speed 7 mph (WNW)    
Max Wind Speed 15 mph    
Max Gust Speed 21 mph    
Visibility 10 miles    
Events      
T = Trace of Precipitation, MM = Missing Value Source: NWS Daily Summary

Daily Weather History Graph

Daily Weather History Graph

Search for Another Location

Airport or City:

Trip Planner

Search our weather history database for the weather conditions in past years. The results will help you decide how hot, cold, wet, or windy it might be!

Date:

Astronomy

Mar. 27, 2013 Rise Set
Actual Time 7:28 AM EDT 7:51 PM EDT
Civil Twilight 7:04 AM EDT 8:16 PM EDT
Nautical Twilight 6:35 AM EDT 8:44 PM EDT
Astronomical Twilight 6:06 AM EDT 9:14 PM EDT
Moon 8:29 PM EDT (3/27) 7:21 AM EDT (3/27)
Length of Visible Light 13h 11m
Length of Day
12h 22m
Full, 100% of the Moon is Illuminated
Mar 27
Full
Apr 3
Last Quarter
Apr 10
New
Apr 18
First Quarter
Apr 25
Full

Hourly Weather History & Observations

Time (EDT) Temp. Windchill Dew Point Humidity Pressure Visibility Wind Dir Wind Speed Gust Speed Precip Events Conditions
12:53 AM 37.9 °F 30.5 °F 23.0 °F 55% 30.29 in 10.0 mi NNW 11.5 mph 16.1 mph N/A   Partly Cloudy
1:53 AM 35.1 °F 30.1 °F 23.0 °F 61% 30.29 in 10.0 mi NW 5.8 mph - N/A   Partly Cloudy
2:53 AM 33.1 °F 30.0 °F 21.9 °F 64% 30.29 in 10.0 mi WNW 3.5 mph - N/A   Clear
3:53 AM 32.0 °F 26.4 °F 21.9 °F 66% 30.28 in 10.0 mi WNW 5.8 mph - N/A   Clear
4:53 AM 30.0 °F 24.1 °F 23.0 °F 75% 30.29 in 10.0 mi West 5.8 mph - N/A   Clear
5:53 AM 30.0 °F 24.1 °F 23.0 °F 75% 30.29 in 10.0 mi WNW 5.8 mph - N/A   Clear
6:53 AM 28.0 °F 21.7 °F 23.0 °F 81% 30.31 in 10.0 mi West 5.8 mph - N/A   Clear
7:53 AM 28.0 °F 22.8 °F 25.0 °F 88% 30.33 in 10.0 mi West 4.6 mph - N/A   Clear
8:53 AM 35.1 °F 30.1 °F 26.1 °F 70% 30.33 in 10.0 mi NW 5.8 mph - N/A   Clear
9:53 AM 39.9 °F 35.1 °F 27.0 °F 60% 30.36 in 10.0 mi NNW 6.9 mph - N/A   Clear
10:53 AM 45.0 °F 41.8 °F 24.1 °F 44% 30.35 in 10.0 mi Variable 5.8 mph - N/A   Clear
11:53 AM 46.9 °F - 23.0 °F 39% 30.34 in 10.0 mi Variable 4.6 mph - N/A   Clear
12:53 PM 50.0 °F - 23.0 °F 35% 30.32 in 10.0 mi NW 8.1 mph - N/A   Clear
1:53 PM 53.1 °F - 23.0 °F 31% 30.31 in 10.0 mi NW 8.1 mph - N/A   Clear
2:53 PM 55.9 °F - 21.0 °F 26% 30.28 in 10.0 mi NW 12.7 mph - N/A   Clear
3:53 PM 59.0 °F - 21.9 °F 24% 30.26 in 10.0 mi NNW 11.5 mph - N/A   Clear
4:53 PM 57.9 °F - 19.9 °F 23% 30.24 in 10.0 mi WNW 11.5 mph 16.1 mph N/A   Clear
5:53 PM 59.0 °F - 21.0 °F 23% 30.24 in 10.0 mi WNW 11.5 mph - N/A   Clear
6:53 PM 57.9 °F - - N/A% 30.24 in 10.0 mi WNW 11.5 mph - N/A   Clear
7:53 PM 57.2 °F - - N/A% 30.24 in 10.0 mi WNW 9.2 mph - N/A   Clear
8:53 PM 46.9 °F - 26.1 °F 44% 30.26 in 10.0 mi West 4.6 mph - N/A   Clear
9:53 PM 43.0 °F 41.3 °F 27.0 °F 53% 30.27 in 10.0 mi West 3.5 mph - N/A   Clear
10:53 PM 39.9 °F 36.7 °F 30.0 °F 68% 30.28 in 10.0 mi West 4.6 mph - N/A   Clear
11:53 PM 39.0 °F 34.0 °F 30.9 °F 73% 30.28 in 10.0 mi West 6.9 mph - N/A   Clear